Location: Unspecified
(0.0000°N, 0.0000°E)
Time: 15:51:40
(UTC+00:00)

FENGYUN 1C DEB - Pass Details

Date: 14 February 2026
Orbit: 819 x 963 km, 99.2° (Epoch: 3 October)

Event Time Altitude Azimuth Distance (km) Brightness Sun altitude
Rises 05:27:08 0° 196° (SSW) 3,546 ? -11.5°
Reaches altitude 10° 05:30:18 10° 213° (SSW) 2,580 ? -10.7°
Maximum altitude 05:34:10 19° 255° (WSW) 1,995 ? -9.7°
Drops below altitude 10° 05:37:57 10° 299° (WNW) 2,515 ? -8.8°
Enters shadow 05:38:19 - 301° (WNW) 2,608 ? -8.7°
